This is the latest recevied weather packets stored in our database for station/object KP4FJC. If no packets are shown the sender has not sent any weather packets the latest 10 day(s).
| Time | Temp. | Humidity | Pressure | Rain* | Wind** | Luminosity | Snow |
|---|---|---|---|---|---|---|---|
| 1777920404 | 32.78° C | 59% | 1015.6 hPa | 0 mm | - | 771 W/m² | - |
| 1777920093 | 32.78° C | 55% | 1015.6 hPa | 0 mm | - | 815 W/m² | - |
| 1777919791 | 33.33° C | 54% | 1015.8 hPa | 0 mm | - | 797 W/m² | - |
| 1777919488 | 32.78° C | 55% | 1015.7 hPa | 0 mm | - | 802 W/m² | - |
| 1777919186 | 33.33° C | 54% | 1015.8 hPa | 0 mm | - | 821 W/m² | - |
| 1777918883 | 32.78° C | 54% | 1016 hPa | 0 mm | - | 860 W/m² | - |
| 1777918580 | 32.78° C | 55% | 1015.9 hPa | 0 mm | - | 858 W/m² | - |
| 1777918278 | 32.78° C | 55% | 1015.9 hPa | 0 mm | - | 863 W/m² | - |
| 1777917977 | 32.22° C | 54% | 1016 hPa | 0 mm | - | 877 W/m² | - |
| 1777917675 | 32.22° C | 55% | 1016.2 hPa | 0 mm | - | 868 W/m² | - |
| 1777917372 | 32.78° C | 54% | 1016.2 hPa | 0 mm | - | 879 W/m² | - |
| 1777917069 | 33.33° C | 53% | 1016.1 hPa | 0 mm | - | 888 W/m² | - |
| 1777916767 | 32.78° C | 55% | 1016.3 hPa | 0 mm | - | 902 W/m² | - |
| 1777916463 | 32.78° C | 55% | 1016.1 hPa | 0 mm | - | 924 W/m² | - |
| 1777916160 | 32.78° C | 58% | 1016.4 hPa | 0 mm | - | 920 W/m² | - |
| 1777915858 | 33.33° C | 55% | 1016.5 hPa | 0 mm | - | 945 W/m² | - |
| 1777915554 | 32.22° C | 57% | 1016.6 hPa | 0 mm | - | 934 W/m² | - |
| 1777915250 | 32.78° C | 57% | 1016.6 hPa | 0 mm | - | 304 W/m² | - |
| 1777914947 | 31.67° C | 57% | 1016.6 hPa | 0 mm | - | 968 W/m² | - |
| 1777914644 | 32.22° C | 54% | 1016.9 hPa | 0 mm | - | 164 W/m² | - |
| 1777914340 | 32.22° C | 55% | 1016.8 hPa | 0 mm | - | 958 W/m² | - |
| 1777914038 | 32.22° C | 54% | 1017 hPa | 0 mm | - | 757 W/m² | - |
| 1777913733 | 32.22° C | 54% | 1016.9 hPa | 0 mm | - | 993 W/m² | - |
| 1777913431 | 32.22° C | 54% | 1017.1 hPa | 0 mm | - | 968 W/m² | - |
| 1777913127 | 32.22° C | 55% | 1016.8 hPa | 0 mm | - | 778 W/m² | - |
* Rain latest hour (hover to see other rain measurements)
** Current wind speed in m/s (hover to see current wind gust speed)